TimeAKST,TemperatureF,Dew PointF,Humidity,Sea Level PressureIn,VisibilityMPH,Wind Direction,Wind SpeedMPH,Gust SpeedMPH,PrecipitationIn,Events,Conditions,WindDirDegrees,DateUTC
12:53 AM,6.1,-0.9,73,29.85,10.0,North,15.0,19.6,N/A,,Overcast,360,2012-11-22 09:53:00
1:53 AM,5.0,-0.9,76,29.86,10.0,North,11.5,-,N/A,,Mostly Cloudy,10,2012-11-22 10:53:00
2:06 AM,5.0,-0.4,78,29.84,10.0,North,10.4,-,N/A,,Mostly Cloudy,10,2012-11-22 11:06:00
3:53 AM,5.0,-0.0,80,29.87,10.0,North,12.7,19.6,N/A,,Overcast,10,2012-11-22 12:53:00
4:53 AM,5.0,-0.9,76,29.86,10.0,North,8.1,-,N/A,,Overcast,10,2012-11-22 13:53:00
5:53 AM,5.0,-0.0,80,29.86,10.0,North,12.7,20.7,N/A,,Overcast,10,2012-11-22 14:53:00
6:53 AM,6.1,-0.0,76,29.86,10.0,North,10.4,-,N/A,,Overcast,10,2012-11-22 15:53:00
7:53 AM,5.0,1.0,84,29.86,10.0,North,12.7,-,N/A,,Clear,10,2012-11-22 16:53:00
8:53 AM,5.0,-0.0,80,29.85,10.0,North,12.7,-,N/A,,Clear,10,2012-11-22 17:53:00
9:53 AM,5.0,-0.0,80,29.85,10.0,North,11.5,-,N/A,,Clear,360,2012-11-22 18:53:00
10:53 AM,7.0,-0.9,70,29.83,10.0,North,13.8,-,N/A,,Clear,10,2012-11-22 19:53:00
11:53 AM,8.1,-0.0,70,29.82,10.0,North,11.5,-,N/A,,Clear,360,2012-11-22 20:53:00
12:53 PM,9.0,-0.0,67,29.78,10.0,North,15.0,-,N/A,,Clear,10,2012-11-22 21:53:00
1:53 PM,10.0,-0.9,61,29.76,10.0,North,15.0,-,N/A,,Clear,360,2012-11-22 22:53:00
2:53 PM,10.0,-0.9,61,29.74,10.0,North,8.1,-,N/A,,Clear,10,2012-11-22 23:53:00
3:53 PM,9.0,-0.9,64,29.72,10.0,North,11.5,-,N/A,,Clear,10,2012-11-23 00:53:00
4:53 PM,7.0,-0.9,70,29.70,10.0,North,8.1,-,N/A,,Clear,350,2012-11-23 01:53:00
5:53 PM,6.1,-2.0,69,29.68,10.0,North,10.4,-,N/A,,Clear,360,2012-11-23 02:53:00
6:53 PM,6.1,-2.0,69,29.68,10.0,North,8.1,-,N/A,,Clear,350,2012-11-23 03:53:00
7:53 PM,5.0,-2.9,70,29.66,10.0,NNW,9.2,-,N/A,,Clear,330,2012-11-23 04:53:00
8:53 PM,3.9,-4.0,70,29.66,10.0,NW,6.9,-,N/A,,Clear,310,2012-11-23 05:53:00
9:53 PM,3.9,-5.1,66,29.65,10.0,NNW,6.9,-,N/A,,Clear,330,2012-11-23 06:53:00
10:53 PM,3.9,-4.0,70,29.65,10.0,NW,8.1,-,N/A,,Clear,320,2012-11-23 07:53:00
11:53 PM,3.0,-4.0,73,29.65,10.0,North,9.2,-,N/A,,Clear,360,2012-11-23 08:53:00